EZY2402 EGPH-EGCC

Flight info

Callsign EZY2402
Flight time N/A
Altitude 25000
Route GOSAM P600 FENIK L612 LAKEY
Aircraft A21N/M-SDE2E3FGHIRWXY/LB1

Departure

Time 2026-04-24 13:43
Airport Edinburgh Airport (EGPH)

Arrival

Time N/A
Airport Manchester Airport (EGCC)
Time Latitude Longitude Altitude Speed Heading
2026-04-24 13:06 55.94837 -3.36647 136 ft 0 kts 89°
2026-04-24 13:32 55.94837 -3.36666 107 ft 3 kts 89°
2026-04-24 13:32 55.94836 -3.36697 107 ft 3 kts 89°
2026-04-24 13:32 55.94836 -3.36730 105 ft 3 kts 89°
2026-04-24 13:32 55.94837 -3.36761 105 ft 3 kts 76°
2026-04-24 13:33 55.94825 -3.36788 107 ft 3 kts
2026-04-24 13:33 55.94813 -3.36787 104 ft 0 kts 12°
2026-04-24 13:36 55.94814 -3.36787 104 ft 0 kts 12°
2026-04-24 13:37 55.94817 -3.36786 104 ft 2 kts 11°
2026-04-24 13:37 55.94850 -3.36779 106 ft 7 kts
2026-04-24 13:37 55.94904 -3.36814 108 ft 10 kts 314°
2026-04-24 13:37 55.94913 -3.36924 107 ft 11 kts 232°
2026-04-24 13:38 55.94866 -3.37071 108 ft 16 kts 240°
2026-04-24 13:38 55.94799 -3.37276 109 ft 22 kts 238°
2026-04-24 13:38 55.94715 -3.37520 113 ft 25 kts 239°
2026-04-24 13:38 55.94635 -3.37758 114 ft 27 kts 239°
2026-04-24 13:39 55.94511 -3.38124 112 ft 32 kts 238°
2026-04-24 13:39 55.94414 -3.38405 114 ft 0 kts 238°
2026-04-24 13:39 55.94413 -3.38407 114 ft 1 kts 238°
2026-04-24 13:39 55.94399 -3.38448 115 ft 7 kts 238°
2026-04-24 13:40 55.94365 -3.38549 117 ft 12 kts 238°
2026-04-24 13:40 55.94315 -3.38695 119 ft 16 kts 239°
2026-04-24 13:40 55.94286 -3.38820 122 ft 5 kts 287°
2026-04-24 13:40 55.94312 -3.38888 121 ft 9 kts 320°
2026-04-24 13:41 55.94385 -3.38957 120 ft 13 kts 353°
2026-04-24 13:41 55.94443 -3.38875 122 ft 12 kts 55°
2026-04-24 13:41 55.94448 -3.38863 122 ft 0 kts 56°
2026-04-24 13:42 55.94484 -3.38768 115 ft 38 kts 56°
2026-04-24 13:42 55.94751 -3.38008 116 ft 108 kts 58°
2026-04-24 13:42 55.95232 -3.36626 205 ft 162 kts 59°
2026-04-24 13:43 55.95817 -3.34818 722 ft 179 kts 54°
2026-04-24 13:43 55.96723 -3.33014 879 ft 211 kts 44°
2026-04-24 13:43 55.97874 -3.31158 1182 ft 232 kts 41°
2026-04-24 13:43 55.99131 -3.29269 1719 ft 241 kts 34°
2026-04-24 13:44 56.00679 -3.28157 1876 ft 246 kts
2026-04-24 13:44 56.02341 -3.28878 1863 ft 250 kts 326°
2026-04-24 13:44 56.03433 -3.31230 1842 ft 248 kts 289°
2026-04-24 13:44 56.03519 -3.34257 1915 ft 253 kts 257°
2026-04-24 13:45 56.02996 -3.37316 2570 ft 255 kts 252°
2026-04-24 13:45 56.02451 -3.40326 3460 ft 254 kts 253°
2026-04-24 13:45 56.01941 -3.43362 4264 ft 257 kts 254°
2026-04-24 13:45 56.01451 -3.46455 5055 ft 260 kts 255°
2026-04-24 13:46 56.00980 -3.49568 5668 ft 262 kts 256°
2026-04-24 13:46 56.00513 -3.52740 5965 ft 265 kts 256°
2026-04-24 13:46 56.00047 -3.55951 5994 ft 267 kts 256°
2026-04-24 13:46 55.99587 -3.59153 6152 ft 268 kts 256°
2026-04-24 13:47 55.99122 -3.62389 6426 ft 267 kts 256°
2026-04-24 13:47 55.98661 -3.65604 6725 ft 268 kts 256°
2026-04-24 13:47 55.98199 -3.68831 7015 ft 269 kts 256°
2026-04-24 13:47 55.97736 -3.72056 7304 ft 270 kts 256°
2026-04-24 13:48 55.97265 -3.75316 7790 ft 273 kts 256°
2026-04-24 13:48 55.96788 -3.78613 8818 ft 275 kts 256°
2026-04-24 13:48 55.96309 -3.81930 9932 ft 277 kts 257°
2026-04-24 13:48 55.95822 -3.85291 10806 ft 286 kts 257°
2026-04-24 13:49 55.95311 -3.88814 11424 ft 302 kts 256°
2026-04-24 13:49 55.94646 -3.92476 12036 ft 319 kts 249°
2026-04-24 13:49 55.93593 -3.96077 12640 ft 336 kts 237°
2026-04-24 13:49 55.92183 -3.99186 13175 ft 352 kts 227°
2026-04-24 13:50 55.90387 -4.02175 13838 ft 364 kts 223°
2026-04-24 13:50 55.88461 -4.05165 14602 ft 370 kts 222°
2026-04-24 13:50 55.86500 -4.08192 15375 ft 376 kts 222°
2026-04-24 13:50 55.84495 -4.11300 16162 ft 380 kts 222°
2026-04-24 13:51 55.82491 -4.14416 16935 ft 385 kts 222°
2026-04-24 13:51 55.80490 -4.17532 17693 ft 389 kts 221°
2026-04-24 13:51 55.78371 -4.20675 18447 ft 394 kts 218°
2026-04-24 13:51 55.76185 -4.23570 19101 ft 399 kts 214°
2026-04-24 13:52 55.73711 -4.25750 19709 ft 403 kts 198°
2026-04-24 13:52 55.70942 -4.26583 20311 ft 408 kts 180°
2026-04-24 13:52 55.68144 -4.25817 20706 ft 409 kts 163°
2026-04-24 13:52 55.65487 -4.23982 20796 ft 411 kts 155°
2026-04-24 13:53 55.62954 -4.21624 20799 ft 413 kts 150°
2026-04-24 13:53 55.60713 -4.19280 20795 ft 414 kts 149°
2026-04-24 13:53 55.58260 -4.16636 20788 ft 414 kts 149°
2026-04-24 13:53 55.55791 -4.14006 20788 ft 414 kts 149°
2026-04-24 13:54 55.53306 -4.11430 20796 ft 414 kts 150°
2026-04-24 13:54 55.50800 -4.08905 20796 ft 414 kts 151°
2026-04-24 13:54 55.48283 -4.06420 20793 ft 414 kts 151°
2026-04-24 13:54 55.45731 -4.03933 20790 ft 414 kts 151°
2026-04-24 13:55 55.43234 -4.01517 20790 ft 414 kts 151°
2026-04-24 13:55 55.40713 -3.99085 20789 ft 414 kts 151°
2026-04-24 13:55 55.38190 -3.96653 20783 ft 414 kts 151°
2026-04-24 13:55 55.35664 -3.94219 20787 ft 414 kts 151°
2026-04-24 13:56 55.33139 -3.91788 20781 ft 414 kts 151°
2026-04-24 13:56 55.30615 -3.89358 20784 ft 414 kts 151°
2026-04-24 13:56 55.28093 -3.86933 20785 ft 414 kts 151°
2026-04-24 13:56 55.25569 -3.84508 20785 ft 414 kts 151°
2026-04-24 13:57 55.23035 -3.82079 20782 ft 415 kts 151°
2026-04-24 13:57 55.20499 -3.79650 20791 ft 415 kts 151°
2026-04-24 13:57 55.17961 -3.77224 20791 ft 416 kts 150°
2026-04-24 13:57 55.15421 -3.74800 20790 ft 416 kts 150°
2026-04-24 13:58 55.12879 -3.72377 20789 ft 416 kts 150°
2026-04-24 13:58 55.10341 -3.69960 20796 ft 416 kts 150°
2026-04-24 13:58 55.07795 -3.67541 20794 ft 417 kts 150°
2026-04-24 13:58 55.05248 -3.65122 20796 ft 416 kts 151°
2026-04-24 13:59 55.02701 -3.62708 20796 ft 416 kts 151°
2026-04-24 13:59 55.00159 -3.60303 20798 ft 417 kts 150°
2026-04-24 13:59 54.97611 -3.57896 20798 ft 417 kts 150°
2026-04-24 13:59 54.95063 -3.55491 20804 ft 417 kts 151°
2026-04-24 14:00 54.92514 -3.53089 20802 ft 416 kts 151°
2026-04-24 14:00 54.89970 -3.50696 20807 ft 416 kts 151°
2026-04-24 14:00 54.87427 -3.48307 20808 ft 415 kts 151°
2026-04-24 14:00 54.84889 -3.45926 20810 ft 416 kts 151°
2026-04-24 14:01 54.82351 -3.43549 20806 ft 416 kts 151°
2026-04-24 14:01 54.79795 -3.41159 20808 ft 416 kts 151°
2026-04-24 14:01 54.77246 -3.38778 20806 ft 416 kts 151°
2026-04-24 14:01 54.74702 -3.36405 20808 ft 416 kts 151°
2026-04-24 14:02 54.72143 -3.34054 20803 ft 416 kts 153°
2026-04-24 14:02 54.69534 -3.31889 20806 ft 416 kts 155°
2026-04-24 14:02 54.66882 -3.29860 20810 ft 416 kts 156°
2026-04-24 14:02 54.64245 -3.27919 20806 ft 416 kts 156°
2026-04-24 14:03 54.61552 -3.25958 20810 ft 417 kts 156°
2026-04-24 14:03 54.58880 -3.24008 20814 ft 417 kts 156°
2026-04-24 14:03 54.56213 -3.22049 20814 ft 417 kts 156°
2026-04-24 14:03 54.53552 -3.20082 20809 ft 417 kts 156°
2026-04-24 14:04 54.50883 -3.18098 20806 ft 417 kts 156°
2026-04-24 14:04 54.48220 -3.16116 20768 ft 421 kts 156°
2026-04-24 14:04 54.45506 -3.14096 20533 ft 426 kts 156°
2026-04-24 14:04 54.42787 -3.12076 20339 ft 427 kts 156°
2026-04-24 14:05 54.40056 -3.10051 20311 ft 427 kts 156°
2026-04-24 14:05 54.37329 -3.08032 20309 ft 426 kts 156°
2026-04-24 14:05 54.34607 -3.06020 20311 ft 426 kts 156°
2026-04-24 14:05 54.31906 -3.04025 20310 ft 427 kts 156°
2026-04-24 14:06 54.29193 -3.02026 20313 ft 427 kts 156°
2026-04-24 14:06 54.26460 -3.00014 20315 ft 426 kts 156°
2026-04-24 14:06 54.23774 -2.97855 20243 ft 426 kts 150°
2026-04-24 14:06 54.21244 -2.95241 19597 ft 423 kts 147°
2026-04-24 14:07 54.18802 -2.92492 18987 ft 418 kts 146°
2026-04-24 14:07 54.17204 -2.90675 18623 ft 415 kts 146°
2026-04-24 14:07 54.14807 -2.87957 18031 ft 412 kts 147°
2026-04-24 14:07 54.12428 -2.85274 17486 ft 409 kts 147°
2026-04-24 14:08 54.10116 -2.82676 16972 ft 407 kts 147°
2026-04-24 14:08 54.07758 -2.80036 16443 ft 404 kts 147°
2026-04-24 14:08 54.05411 -2.77413 15910 ft 402 kts 147°
2026-04-24 14:08 54.03082 -2.74817 15392 ft 400 kts 147°
2026-04-24 14:09 54.00757 -2.72227 14862 ft 398 kts 147°
2026-04-24 14:09 53.98448 -2.69661 14343 ft 395 kts 147°
2026-04-24 14:09 53.96222 -2.67190 13817 ft 394 kts 147°
2026-04-24 14:09 53.93940 -2.64660 13280 ft 390 kts 147°
2026-04-24 14:10 53.91714 -2.62195 12783 ft 386 kts 147°
2026-04-24 14:10 53.89491 -2.59737 12433 ft 374 kts 147°
2026-04-24 14:10 53.87359 -2.57381 12092 ft 360 kts 147°
2026-04-24 14:10 53.85284 -2.55093 11677 ft 351 kts 147°
2026-04-24 14:11 53.83264 -2.52868 11321 ft 340 kts 147°
2026-04-24 14:11 53.81322 -2.50730 11104 ft 327 kts 147°
2026-04-24 14:11 53.77657 -2.46704 10697 ft 303 kts 147°
2026-04-24 14:12 53.75901 -2.44780 10296 ft 300 kts 147°
2026-04-24 14:12 53.74151 -2.42862 9848 ft 298 kts 147°
2026-04-24 14:12 53.72417 -2.40965 9392 ft 295 kts 147°
2026-04-24 14:12 53.70704 -2.39092 8960 ft 292 kts 147°
2026-04-24 14:13 53.68997 -2.37227 8366 ft 294 kts 147°
2026-04-24 14:13 53.67292 -2.35297 7764 ft 296 kts 141°
2026-04-24 14:13 53.65833 -2.32904 7478 ft 287 kts 132°
2026-04-24 14:13 53.64541 -2.30448 7309 ft 274 kts 131°
2026-04-24 14:14 53.63343 -2.28119 7155 ft 262 kts 131°
2026-04-24 14:14 53.62174 -2.25848 6923 ft 252 kts 131°
2026-04-24 14:14 53.59891 -2.21434 5993 ft 249 kts 131°
2026-04-24 14:15 53.58775 -2.19282 5596 ft 245 kts 131°
2026-04-24 14:15 53.57658 -2.17131 5101 ft 244 kts 131°
2026-04-24 14:15 53.56548 -2.14999 4632 ft 242 kts 131°
2026-04-24 14:15 53.55440 -2.12877 4192 ft 240 kts 131°
2026-04-24 14:16 53.54347 -2.10787 3901 ft 236 kts 130°
2026-04-24 14:16 53.53250 -2.08686 3642 ft 236 kts 130°
2026-04-24 14:16 53.52169 -2.06615 3490 ft 232 kts 130°
2026-04-24 14:17 53.50134 -2.03004 3478 ft 196 kts 145°
2026-04-24 14:17 53.48949 -2.02251 3453 ft 174 kts 181°
2026-04-24 14:17 53.46994 -2.03760 3474 ft 147 kts 218°
2026-04-24 14:18 53.46266 -2.04941 3445 ft 146 kts 228°
2026-04-24 14:18 53.45619 -2.06239 3268 ft 145 kts 230°
2026-04-24 14:18 53.44978 -2.07568 3073 ft 146 kts 229°
2026-04-24 14:18 53.44340 -2.08891 2841 ft 145 kts 229°
2026-04-24 14:19 53.43710 -2.10195 2680 ft 146 kts 229°
2026-04-24 14:19 53.43071 -2.11524 2473 ft 145 kts 230°
2026-04-24 14:19 53.42443 -2.12830 2273 ft 143 kts 230°
2026-04-24 14:19 53.41821 -2.14122 2096 ft 142 kts 230°
2026-04-24 14:20 53.41205 -2.15404 1896 ft 141 kts 229°
2026-04-24 14:20 53.40591 -2.16678 1714 ft 141 kts 229°
2026-04-24 14:20 53.39976 -2.17956 1502 ft 140 kts 229°
2026-04-24 14:20 53.39363 -2.19228 1325 ft 140 kts 229°
2026-04-24 14:21 53.38748 -2.20503 1129 ft 140 kts 230°
2026-04-24 14:21 53.38138 -2.21771 940 ft 140 kts 230°
2026-04-24 14:21 53.37528 -2.23036 745 ft 140 kts 230°
2026-04-24 14:21 53.36920 -2.24297 564 ft 139 kts 231°
2026-04-24 14:22 53.36311 -2.25560 368 ft 140 kts 231°
2026-04-24 14:22 53.35710 -2.26807 241 ft 134 kts 231°
2026-04-24 14:22 53.34778 -2.28737 268 ft 79 kts 230°
2026-04-24 14:23 53.34536 -2.29229 274 ft 93 kts 231°